Weather in Izumrud

Russia / Sverdlovsk Oblast     57°04′24″N   61°24′00″E
temp.,
°C
wind,
m/s
gust,
m/s
humid.,
%
clouds,
%
prec.,
mm/h
press.,
hPa
HPBL,
m
11 may, tue
tue1123:00+12s224796 0.0 102634
02:00+10s22488 0.0 102618
05:00+9ssw22535 0.0 102711
08:00+15ssw24395 0.0 1028293
11:00+19sw2327100 0.0 10281282
14:00+21sw2322100 0.0 10271612
17:00+21sw232398 0.0 10271529
20:00+18sw11365 0.0 102711
12 may, wed
wed1223:00+14wsw22417 0.0 102723
02:00+12nw236111 0.0 102753
05:00+11nnw2589100 0.0 1028105
08:00+15nnw3662100 0.0 1029404
11:00+19nnw343575 0.0 10281140
14:00+22nnw342799 0.0 10281688
17:00+23nnw342946 0.0 10271949
20:00+19nne114544 0.0 102711
13 may, thu
thu1323:00+15w22519 0.0 102722
02:00+13nw22695 0.0 102730
05:00+12nw2573100 0.0 102889
08:00+18nw36538 0.0 1027351
11:00+23nnw45375 0.0 10271637
14:00+25nnw453375 0.0 10262123
17:00+26nnw353125 0.0 10252374
20:00+22n22455 0.0 102611
14 may, fri
fri1423:00+17nne22545 0.0 102613
02:00+15sse226795 0.0 102721
05:00+14sse22735 0.0 102824
08:00+19s23545 0.0 1027290
11:00+25sw34361 0.0 10261525
14:00+28wsw35265 0.0 10242709
17:00+28w45265 0.0 10233108
20:00+23w22405 0.0 102333
15 may, sat
sat1523:00+18wnw25535 0.0 102386
02:00+17w246030 0.0 102368
05:00+16w2666100 0.0 1023120
08:00+21w364946 0.0 1023362
11:00+26w463315 0.0 10221490
14:00+29w4725100 0.0 10212766
17:00+28w462980 0.0 10182916
20:00